Theta_e
280 280 280 280 280 280 280 280 279 279 279 279 278 278 278 279 277 278 279 279 280 280 281 281 282 282 282 282 282 282 282 282 282 283 282 282 282 282 282 283 283 283
280 280 280 280 280 280 280 280 280 279 279 278 278 278 278 277 277 277 278 278 279 280 280 281 281 282 282 282 282 282 281 282 281 282 282 282 282 282 282 282 282 283
279 279 279 279 279 279 279 279 279 279 279 279 278 278 278 277 277 276 277 277 278 279 279 280 280 281 281 281 281 281 281 281 281 282 281 281 282 281 282 282 282 282
278 278 279 279 279 279 279 279 279 279 278 278 278 278 277 277 276 276 276 277 277 277 278 278 279 280 280 281 281 280 281 281 281 281 281 281 281 281 281 281 281 281
277 277 278 278 278 278 278 278 277 277 277 277 278 278 278 277 276 276 276 275 275 275 276 277 278 278 279 279 279 279 280 280 280 280 280 279 280 280 280 280 279 279
276 276 276 276 276 276 276 276 276 276 276 276 276 276 276 276 275 275 275 274 275 275 275 275 276 277 277 278 278 278 278 278 278 278 278 278 278 279 279 278 278 278
274 274 274 275 274 275 274 274 274 275 275 275 275 275 275 274 274 274 273 273 273 273 273 273 274 275 276 276 276 276 276 276 276 276 276 276 277 277 277 277 277 277
272 273 273 273 273 272 272 272 272 272 273 273 273 273 274 273 273 273 273 272 272 271 271 271 272 273 272 274 274 274 275 275 275 275 275 275 275 275 275 276 276 275
271 271 271 271 271 271 270 270 271 271 272 271 271 272 272 273 273 273 273 273 273 272 272 271 271 270 270 270 271 271 272 273 274 273 273 273 273 273 273 274 273 273
270 270 270 270 269 269 269 269 269 270 270 270 270 271 271 271 272 272 272 272 272 272 272 272 272 272 271 270 270 270 270 271 271 271 271 271 271 271 272 271 271 271
268 269 268 268 268 268 268 268 268 268 269 269 269 269 269 270 270 270 270 270 270 271 271 271 272 272 271 271 271 271 271 271 271 271 271 271 271 271 271 271 271 270
268 268 267 268 268 267 267 267 267 267 268 268 269 268 268 268 268 269 270 269 270 270 270 270 270 270 270 270 270 270 270 271 271 271 271 271 271 271 271 271 271 271
267 267 267 266 266 266 266 266 266 266 267 267 268 267 267 267 268 268 268 268 268 269 269 269 269 269 269 269 269 269 269 269 269 269 270 270 270 270 271 271 271 271
266 266 266 266 266 265 265 265 265 265 266 267 267 266 267 267 267 267 267 268 267 267 268 268 268 268 268 268 269 269 268 268 268 268 268 268 269 269 269 270 270 270
266 266 266 265 265 265 265 265 265 265 266 266 265 265 267 267 268 267 266 266 266 266 266 267 267 267 267 268 268 269 270 270 270 269 269 269 269 269 269 269 269 269
265 265 265 264 264 264 264 265 265 265 265 265 265 266 267 268 267 267 266 265 265 265 265 266 266 266 267 269 271 271 272 272 272 271 271 270 270 270 270 270 269 269
264 264 264 263 264 263 264 264 264 264 264 264 264 264 266 267 267 265 264 263 264 265 265 265 265 266 267 270 272 273 272 272 271 272 272 272 272 271 270 271 271 271
263 263 263 263 263 262 262 262 262 262 262 262 262 263 265 266 266 263 262 261 263 264 265 265 264 266 267 270 272 273 272 271 270 270 270 270 270 270 271 271 271 271
262 261 261 261 262 262 262 261 260 260 259 260 260 261 262 264 265 262 260 260 261 262 263 263 260 265 267 270 271 272 272 270 270 269 269 269 269 269 269 269 270 270
261 261 261 261 261 261 261 260 259 259 259 259 260 261 261 263 263 261 260 259 260 261 261 259 259 264 266 269 270 271 271 271 268 268 267 267 267 267 267 268 268 269
261 260 260 260 260 260 260 259 258 258 259 259 259 260 261 263 262 260 259 260 260 260 260 259 260 264 266 268 269 269 270 269 266 265 265 265 265 266 266 267 267 268
259 259 258 258 258 258 257 257 258 257 257 258 259 260 262 262 260 259 259 259 260 258 258 258 259 264 265 266 268 268 270 266 264 263 262 262 262 263 263 264 265 265
259 258 258 257 257 257 256 257 257 257 257 258 258 260 261 261 259 259 259 260 260 259 258 258 259 262 264 264 265 268 267 264 263 261 260 260 260 261 262 263 264 264
259 258 256 256 255 255 256 257 256 256 256 258 258 259 260 260 258 258 259 259 259 258 258 258 258 261 263 263 264 267 266 263 261 259 258 259 259 260 261 261 262 265
259 258 257 256 255 256 255 255 255 255 256 257 257 258 258 258 258 257 257 258 258 258 261 260 258 259 261 262 263 266 265 261 260 259 258 257 258 259 260 260 261 263
258 257 257 256 256 254 254 254 254 254 255 255 255 255 256 256 256 256 255 256 257 257 257 257 256 257 259 261 262 263 264 261 258 257 257 257 258 259 259 259 260 261
Wind_Speed
4 3 3 2 1 2 2 2 2 1 1 0 3 3 5 5 2 5 6 5 6 6 6 6 5 6 6 6 7 7 7 8 7 6 8 8 9 10 11 11 11 10
4 4 4 3 3 3 2 2 1 0 2 1 1 3 3 3 3 3 5 6 5 7 6 6 6 6 6 6 6 7 6 7 8 6 8 10 10 9 12 11 11 11
6 5 5 5 3 3 2 1 1 1 1 1 1 2 4 2 3 3 5 5 6 6 6 5 6 7 7 7 7 7 7 7 8 8 9 10 9 9 10 9 10 12
7 8 7 7 6 5 4 5 5 5 3 3 3 3 3 3 3 4 4 5 5 5 5 5 6 6 6 7 6 6 8 8 8 8 8 8 9 9 10 9 10 10
9 9 8 8 7 8 8 8 7 7 6 5 5 5 5 4 3 3 3 3 4 4 4 5 5 6 6 6 7 6 7 7 7 8 8 9 8 9 9 9 10 11
9 9 9 9 9 9 8 8 8 8 7 7 6 5 6 6 6 4 3 3 3 3 4 4 5 6 6 6 6 7 7 7 7 8 9 9 9 8 8 9 10 11
10 9 10 9 9 10 9 9 8 7 7 6 5 7 7 7 6 6 5 5 4 3 3 4 4 5 4 4 5 6 6 7 7 7 8 8 8 10 8 8 10 11
9 9 8 9 9 9 9 9 8 8 7 7 7 6 6 6 7 6 6 6 5 4 3 3 3 4 4 3 5 5 6 5 6 8 8 9 8 9 8 8 9 10
9 9 9 10 10 9 10 9 8 8 8 8 8 7 6 7 7 7 7 6 6 6 5 4 3 3 3 2 4 4 5 5 6 6 8 8 9 9 8 7 8 8
9 8 9 9 9 7 8 8 7 7 7 7 7 6 7 7 7 7 6 7 6 7 6 6 6 6 5 3 3 4 4 5 5 6 6 7 7 7 7 7 8 8
8 8 8 8 8 7 8 7 7 6 5 6 6 7 7 6 7 6 7 7 6 7 7 7 7 6 6 5 5 3 4 4 5 5 6 6 7 7 7 7 8 9
8 8 9 9 8 8 8 8 6 6 6 5 7 7 7 6 7 7 6 8 7 7 6 6 6 6 5 5 5 5 5 4 4 5 5 6 6 5 5 6 7 8
8 8 7 7 7 7 6 7 7 6 6 6 5 5 5 5 5 6 6 6 6 6 6 6 6 5 5 5 5 5 4 4 5 5 5 5 5 6 5 5 6 6
6 6 6 6 6 5 5 6 5 5 5 5 5 5 4 4 6 7 7 6 7 6 7 6 6 6 5 6 6 5 5 4 4 5 5 5 5 5 5 6 6 6
5 6 6 6 7 7 7 7 7 6 5 5 5 5 4 3 5 5 6 6 6 5 6 6 5 6 5 8 8 7 6 5 5 5 6 6 6 6 6 6 6 6
6 6 6 6 6 6 6 6 6 6 6 7 7 6 5 4 4 4 5 5 6 6 5 5 5 4 9 15 12 8 8 7 7 6 5 6 6 6 6 6 7 7
6 5 5 5 5 5 5 6 6 5 5 5 6 6 5 4 3 3 5 4 4 6 6 5 5 6 14 14 15 15 10 7 7 7 7 7 6 6 6 6 6 6
5 5 5 4 5 5 5 5 4 4 4 4 5 5 5 4 1 4 4 4 4 4 4 5 5 11 14 15 15 15 13 9 7 7 7 7 7 8 8 8 7 6
4 4 4 5 5 5 5 4 3 3 4 5 5 5 5 5 3 5 4 4 4 4 4 4 4 9 14 15 15 15 15 12 6 7 7 6 7 8 8 8 8 8
2 3 4 4 5 5 5 5 4 5 4 4 5 6 5 4 3 5 5 5 4 4 4 4 4 8 14 15 15 16 15 14 6 8 7 8 8 9 8 8 8 8
3 3 4 5 5 6 6 5 5 5 5 5 4 6 6 4 4 5 6 5 5 4 4 5 5 11 14 15 15 16 17 13 6 7 7 6 7 7 8 8 9 9
1 3 3 3 4 5 5 6 5 5 5 6 5 5 4 3 4 4 6 6 5 4 4 5 5 10 14 15 16 16 17 7 5 6 6 6 7 6 7 7 7 8
2 2 3 3 3 4 5 5 6 7 7 5 6 7 7 6 5 5 6 6 6 5 6 6 6 8 13 15 16 17 12 5 5 5 5 6 7 6 6 6 6 7
2 2 3 3 3 4 4 5 4 4 4 4 6 7 7 7 6 6 5 5 6 6 5 6 6 7 12 14 15 16 13 7 5 5 6 6 7 6 6 7 8 15
3 3 3 3 3 4 3 4 4 4 5 4 5 5 6 6 5 6 6 5 5 5 8 7 6 7 10 12 15 15 11 5 5 5 6 6 6 7 6 6 6 8
3 3 3 3 4 4 4 4 4 4 4 4 5 4 5 5 5 5 6 7 6 6 6 5 6 6 6 12 13 14 14 8 4 5 7 7 7 7 7 6 6 6
Wind_Direction
91 92 100 91 62 43 19 11 2 341 312 185 204 241 228 247 202 205 218 218 213 212 214 215 212 211 212 208 205 209 211 217 222 215 221 224 231 229 233 230 226 228
66 95 113 116 107 98 100 108 109 150 292 291 272 291 285 278 246 213 222 222 218 220 215 213 212 212 209 207 207 209 214 214 223 216 222 225 229 229 236 234 233 235
53 60 62 58 58 60 68 77 85 67 349 321 331 297 285 270 261 231 232 221 221 222 216 211 211 211 208 207 203 206 214 217 222 221 224 230 231 232 235 233 235 233
39 45 49 49 48 45 40 45 34 29 18 7 341 302 266 261 238 236 231 227 224 230 222 214 217 215 211 211 204 210 214 218 221 220 226 229 230 232 235 230 236 235
38 35 34 39 41 46 49 49 41 33 31 19 10 356 342 327 291 257 241 233 224 234 225 221 219 219 212 212 205 213 217 224 224 222 227 231 229 228 231 230 234 235
39 38 39 38 38 40 44 41 35 28 22 20 15 8 11 6 5 351 323 286 243 231 238 233 229 229 219 218 211 214 219 222 225 219 225 230 232 227 227 226 232 235
38 34 34 35 38 38 42 36 31 26 22 14 10 21 11 14 12 7 0 351 334 301 255 240 232 241 231 224 219 223 223 226 232 226 229 232 231 236 231 232 235 238
40 38 34 35 38 36 37 31 24 19 13 10 22 12 12 12 12 8 9 3 3 352 334 309 288 261 253 230 232 234 237 232 233 235 239 239 235 240 234 237 237 241
41 37 34 35 37 34 29 24 17 13 13 12 12 7 7 16 10 11 8 6 6 5 354 349 335 312 295 266 252 243 246 246 240 238 240 242 241 242 239 241 247 246
41 36 36 37 37 33 28 24 18 16 13 13 12 8 11 9 11 7 12 11 9 6 4 356 353 346 335 313 271 261 260 257 256 251 248 250 251 253 249 244 246 252
41 37 36 34 35 29 26 22 20 20 17 14 18 18 16 12 13 10 11 14 12 6 1 1 358 351 348 339 328 308 284 276 268 262 255 253 251 250 249 246 249 247
37 33 31 28 25 20 17 14 12 14 12 15 22 13 14 14 12 12 13 9 5 1 0 358 354 353 350 345 336 329 318 302 291 282 278 275 271 263 256 249 252 253
32 30 26 23 23 16 12 10 10 5 5 10 16 6 8 6 13 17 10 9 357 357 358 353 348 347 348 347 341 330 320 308 299 291 286 284 279 277 275 270 265 265
28 25 24 21 20 13 12 9 5 2 5 8 7 360 2 3 15 14 10 3 3 359 354 348 346 345 348 347 335 322 310 297 284 283 282 277 275 272 271 269 267 267
21 23 20 18 16 10 10 7 4 360 360 359 357 350 346 357 20 11 8 1 4 358 353 350 350 347 356 344 329 320 311 304 297 290 284 281 276 269 260 258 257 253
22 19 17 12 16 6 4 1 359 358 357 356 353 340 338 355 9 14 15 357 353 350 354 352 350 348 341 332 328 329 329 325 319 304 290 281 283 282 275 261 255 254
19 11 9 8 7 357 357 355 352 346 344 346 339 332 330 352 345 31 12 347 345 343 345 346 349 341 336 332 335 334 332 325 322 322 322 321 315 303 292 282 272 260
9 1 357 356 357 354 352 347 336 331 332 336 330 326 327 316 346 42 359 337 328 327 343 344 349 335 333 331 331 334 335 333 329 323 326 324 320 319 317 316 306 294
4 355 348 348 350 343 338 339 335 337 340 344 335 325 315 308 21 16 351 335 320 322 341 334 335 324 332 330 332 334 334 331 321 329 326 321 318 315 313 312 312 310
1 344 343 335 335 334 338 340 345 345 343 331 327 324 319 310 16 357 341 327 315 325 328 324 321 320 332 329 332 332 331 331 339 340 333 324 322 317 314 312 308 307
341 328 334 334 336 341 341 342 342 336 338 333 329 318 310 317 2 348 331 322 313 323 326 320 309 321 329 328 328 330 328 337 346 336 325 316 316 317 315 317 320 317
314 327 334 336 337 340 338 334 334 332 331 327 325 308 293 328 347 339 322 314 306 313 317 308 299 316 325 327 326 324 327 337 344 335 327 320 316 314 311 305 302 301
318 327 327 328 332 333 329 330 333 330 330 327 324 318 318 322 328 322 312 307 307 313 315 307 310 314 322 324 324 322 326 331 339 335 322 317 311 309 304 302 305 307
289 295 297 306 315 316 314 311 312 302 300 308 311 310 309 310 312 305 299 298 298 299 296 295 299 307 314 316 319 318 322 330 333 326 313 311 307 307 309 304 298 304
264 278 282 288 290 290 291 294 297 295 294 297 285 288 289 292 292 291 291 291 286 283 291 296 296 300 305 306 312 316 320 326 327 316 309 304 304 304 296 292 296 303
268 274 276 276 282 290 295 286 285 294 288 286 282 275 279 287 287 290 293 293 295 295 293 290 291 291 291 295 304 311 315 317 315 318 303 301 301 297 303 299 299 300